| time (UTC) | temp F | wind direction | speed knots | gust knots | rain 1hr in | rain 24hr in | rain mn in | humidity % | barometer mb |
| 20260503021505 | 46 | 337 | 0.0 | 0.9 | 0.00 | 0.00 | 0.00 | 53 | 1018.7 |
| 20260503020003 | 47 | 312 | 0.0 | 0.9 | 0.00 | 0.00 | 0.00 | 52 | 1018.7 |
| 20260503014505 | 48 | 323 | 0.0 | 0.9 | 0.00 | 0.00 | 0.00 | 51 | 1018.6 |
| 20260503013001 | 48 | 347 | 0.0 | 1.7 | 0.00 | 0.00 | 0.00 | 50 | 1018.2 |
| 20260503011500 | 49 | 320 | 0.0 | 5.2 | 0.00 | 0.00 | 0.00 | 50 | 1017.9 |
| 20260503010100 | 49 | 338 | 0.0 | 7.0 | 0.00 | 0.00 | 0.00 | 52 | 1017.8 |
| 20260503004601 | 50 | 273 | 0.0 | 0.9 | 0.00 | 0.00 | 0.00 | 51 | 1017.5 |
| 20260503003102 | 50 | 262 | 0.0 | 3.5 | 0.00 | 0.00 | 0.00 | 51 | 1017.4 |
| 20260503001559 | 50 | 261 | 0.9 | 2.6 | 0.00 | 0.00 | 0.00 | 50 | 1017.2 |
| 20260503000059 | 51 | 275 | 0.0 | 4.3 | 0.00 | 0.00 | 0.00 | 50 | 1017.1 |
| 20260502234603 | 51 | 302 | 0.9 | 7.0 | 0.00 | 0.00 | 0.00 | 48 | 1017.1 |
| 20260502233057 | 52 | 277 | 0.0 | 5.2 | 0.00 | 0.00 | 0.00 | 48 | 1016.8 |
| 20260502231609 | 52 | 347 | 0.0 | 8.7 | 0.00 | 0.00 | 0.00 | 47 | 1016.8 |
| 20260502230057 | 53 | 268 | 0.0 | 3.5 | 0.00 | 0.00 | 0.00 | 47 | 1016.7 |
| 20260502224559 | 53 | 347 | 0.9 | 7.0 | 0.00 | 0.00 | 0.00 | 45 | 1016.6 |
| 20260502223056 | 53 | 347 | 0.0 | 4.3 | 0.00 | 0.00 | 0.00 | 47 | 1016.6 |
| 20260502221555 | 54 | 347 | 0.9 | 3.5 | 0.00 | 0.00 | 0.00 | 47 | 1016.6 |
| 20260502220055 | 53 | 246 | 3.5 | 7.0 | 0.00 | 0.00 | 0.00 | 45 | 1016.6 |
| 20260502214555 | 53 | 285 | 0.0 | 7.0 | 0.00 | 0.00 | 0.00 | 46 | 1016.4 |
| 20260502213105 | 55 | 347 | 1.7 | 7.0 | 0.00 | 0.00 | 0.00 | 43 | 1016.4 |
| 20260502211554 | 54 | 347 | 0.9 | 4.3 | 0.00 | 0.00 | 0.00 | 47 | 1016.3 |
| 20260502210052 | 54 | 347 | 0.0 | 3.5 | 0.00 | 0.00 | 0.00 | 47 | 1016.4 |
| 20260502204556 | 53 | 235 | 0.9 | 5.2 | 0.00 | 0.00 | 0.00 | 45 | 1016.4 |
| 20260502203052 | 53 | 347 | 0.0 | 4.3 | 0.00 | 0.00 | 0.00 | 47 | 1016.6 |
| 20260502201551 | 54 | 347 | 0.9 | 3.5 | 0.00 | 0.00 | 0.00 | 45 | 1016.5 |
| 20260502200049 | 55 | 233 | 1.7 | 7.8 | 0.00 | 0.00 | 0.00 | 44 | 1016.5 |
| 20260502194547 | 53 | 347 | 1.7 | 9.6 | 0.00 | 0.00 | 0.00 | 46 | 1016.7 |
| 20260502193051 | 55 | 296 | 0.9 | 3.5 | 0.00 | 0.00 | 0.00 | 42 | 1016.7 |
| 20260502191548 | 54 | 47 | 1.7 | 8.7 | 0.00 | 0.00 | 0.00 | 44 | 1017.0 |
| 20260502190044 | 54 | 40 | 0.9 | 5.2 | 0.00 | 0.00 | 0.00 | 47 | 1017.1 |
| 20260502184553 | 53 | 56 | 0.0 | 6.1 | 0.00 | 0.00 | 0.00 | 47 | 1017.4 |
| 20260502183044 | 54 | 231 | 0.9 | 7.8 | 0.00 | 0.00 | 0.00 | 50 | 1017.5 |
| 20260502181544 | 52 | 260 | 1.7 | 7.0 | 0.00 | 0.00 | 0.00 | 46 | 1017.4 |
| 20260502163037 | 53 | 306 | 1.7 | 7.8 | 0.00 | 0.00 | 0.00 | 44 | 1017.8 |
| 20260502161535 | 52 | 310 | 0.0 | 7.8 | 0.00 | 0.00 | 0.00 | 46 | 1017.9 |
| 20260502151530 | 53 | 342 | 0.9 | 5.2 | 0.00 | 0.00 | 0.00 | 51 | 1018.3 |
| 20260502123015 | 42 | 253 | 0.0 | 0.0 | 0.00 | 0.00 | 0.00 | 91 | 1018.1 |
| 20260502121533 | 41 | 347 | 0.0 | 0.9 | 0.00 | 0.00 | 0.00 | 92 | 1017.9 |
| 20260502114511 | 38 | 254 | 0.0 | 0.0 | 0.00 | 0.00 | 0.00 | 92 | 1018.0 |
| 20260502113010 | 37 | 254 | 0.0 | 0.0 | 0.00 | 0.00 | 0.00 | 92 | 1018.2 |
| 20260502111510 | 36 | 254 | 0.0 | 0.0 | 0.00 | 0.00 | 0.00 | 92 | 1017.9 |
| 20260502110009 | 36 | 254 | 0.0 | 0.0 | 0.00 | 0.01 | 0.00 | 92 | 1017.9 |
| 20260502104507 | 36 | 254 | 0.0 | 0.0 | 0.00 | 0.01 | 0.00 | 91 | 1017.8 |
| 20260502103006 | 36 | 254 | 0.0 | 0.0 | 0.00 | 0.01 | 0.00 | 91 | 1017.4 |
| 20260502101510 | 36 | 293 | 0.0 | 0.0 | 0.00 | 0.01 | 0.00 | 91 | 1018.1 |
| 20260502090104 | 37 | 293 | 0.0 | 0.0 | 0.00 | 0.01 | 0.00 | 91 | 1018.1 |
| 20260502070045 | 39 | 293 | 0.0 | 0.0 | 0.00 | 0.01 | 0.00 | 88 | 1017.7 |
| 20260502064543 | 40 | 302 | 0.0 | 0.0 | 0.00 | 0.01 | 0.00 | 88 | 1017.7 |
| 20260502063046 | 40 | 303 | 0.0 | 0.0 | 0.00 | 0.01 | 0.00 | 87 | 1017.8 |
| 20260502061539 | 41 | 303 | 0.0 | 0.0 | 0.00 | 0.01 | 0.00 | 86 | 1018.2 |
| 20260502060036 | 41 | 303 | 0.0 | 0.0 | 0.00 | 0.01 | 0.00 | 85 | 1018.3 |
| 20260502054541 | 42 | 303 | 0.0 | 0.0 | 0.00 | 0.01 | 0.00 | 84 | 1018.2 |
| 20260502053035 | 42 | 303 | 0.0 | 0.0 | 0.00 | 0.01 | 0.00 | 82 | 1018.3 |
| 20260502051527 | 43 | 303 | 0.0 | 0.0 | 0.00 | 0.01 | 0.00 | 81 | 1018.5 |
| 20260502050029 | 44 | 303 | 0.0 | 0.0 | 0.00 | 0.01 | 0.00 | 80 | 1018.5 |
| 20260502044522 | 44 | 303 | 0.0 | 0.0 | 0.00 | 0.01 | 0.00 | 79 | 1018.6 |
| 20260502043020 | 45 | 303 | 0.0 | 0.9 | 0.00 | 0.01 | 0.00 | 78 | 1018.5 |
| 20260502041516 | 46 | 303 | 0.0 | 0.0 | 0.00 | 0.01 | 0.00 | 76 | 1018.5 |
| 20260502040013 | 46 | 303 | 0.0 | 0.0 | 0.00 | 0.01 | 0.01 | 74 | 1018.5 |
| 20260502034513 | 47 | 347 | 0.0 | 0.0 | 0.00 | 0.01 | 0.01 | 72 | 1018.4 |
| 20260502033013 | 47 | 302 | 0.0 | 0.0 | 0.00 | 0.01 | 0.01 | 70 | 1018.4 |
| 20260502031513 | 48 | 347 | 0.0 | 0.0 | 0.00 | 0.01 | 0.01 | 67 | 1018.7 |
| 20260502030011 | 48 | 302 | 0.0 | 0.9 | 0.00 | 0.01 | 0.01 | 66 | 1018.6 |
| 20260502024509 | 49 | 296 | 0.0 | 2.6 | 0.00 | 0.01 | 0.01 | 65 | 1018.5 |
| 20260502023009 | 49 | 359 | 0.0 | 1.7 | 0.00 | 0.01 | 0.01 | 65 | 1018.5 |